This demonstration page uses our WeatherBlox Daily Observations layout. Learn more.

Left ArrowRight Arrow

Hourly Observations for October 4, 2022

Temp ( °F °C ) Dew Point ( °F °C ) Humidity (%) Winds ( mph kmh ) Pressure ( in mb ) Visibility ( mi km ) Precip ( " mm )
12:15 am 00:15 Mostly Cloudy 66 18.7 39 4.1 38 38 Calm 30.04 1017 10 16 0.00 0.00
12:35 am 00:35 Cloudy 65 18.5 40 4.4 39 39 SSE 5 7 30.04 1017 10 16 0.00 0.00
12:55 am 00:55 Cloudy 65 18.1 41 5 42 42 S 3 6 30.04 1017 10 16 0.00 0.00
1:15 am 01:15 Cloudy with Drizzle 63 17.4 44 6.7 49 49 WNW 3 6 30.06 1018 10 16 0.00 0.00
1:35 am 01:35 Cloudy 64 17.7 42 5.7 45 45 Calm 30.05 1017 10 16 0.00 0.00
1:55 am 01:55 Cloudy with Drizzle 62 16.9 45 7.3 53 53 Calm 30.05 1018 10 16 0.00 0.00
2:15 am 02:15 Cloudy 59 15.1 49 9.7 70 70 Calm 30.06 1018 10 16 0.00 0.00
2:35 am 02:35 Mostly Cloudy 62 16.9 43 6.2 49 49 Calm 30.04 1017 10 16 0.00 0.00
2:55 am 02:55 Partly Cloudy 58 14.6 48 8.8 68 68 NW 3 6 30.06 1018 10 16 0.00 0.00
3:15 am 03:15 Partly Cloudy 58 14.4 48 9.1 70 70 NE 5 7 30.06 1018 10 16 0.00 0.00
3:35 am 03:35 Mostly Cloudy 57 14 49 9.3 73 73 ENE 5 7 30.06 1018 10 16 0.00 0.00
3:55 am 03:55 Partly Cloudy 57 14 49 9.2 73 73 Calm 30.06 1018 10 16 0.00 0.00
4:15 am 04:15 Mostly Cloudy 57 14 47 8.1 68 68 ENE 6 9 30.05 1018 10 16 0.00 0.00
4:35 am 04:35 Cloudy 57 14 47 8.2 68 68 Calm 30.05 1018 10 16 0.00 0.00
4:55 am 04:55 Cloudy 58 14.6 47 8.1 65 65 Calm 30.04 1017 10 16 0.00 0.00
5:15 am 05:15 Cloudy 57 14 47 8.4 69 69 Calm 30.06 1018 10 16 0.00 0.00
5:35 am 05:35 Cloudy 57 13.8 48 9.1 73 73 NNE 3 6 30.06 1018 10 16 0.00 0.00
5:55 am 05:55 Cloudy 56 13.5 49 9.7 78 78 Calm 30.06 1018 10 16 0.00 0.00
6:15 am 06:15 Cloudy with Light Rain 56 13.1 50 9.9 81 81 E 3 6 30.06 1018 10 16 0.00 0.00
6:35 am 06:35 Cloudy with Drizzle 56 13.3 50 9.8 79 79 Calm 30.06 1018 10 16 0.00 0.00
6:55 am 06:55 Cloudy with Rain 56 13.4 48 9.1 75 75 S 3 6 30.06 1018 10 16 0.00 0.00
7:15 am 07:15 Cloudy with Light Rain 55 12.9 49 9.5 80 80 SE 3 6 30.07 1018 10 16 0.01 0.25
7:35 am 07:35 Cloudy with Light Rain 55 12.8 50 9.8 82 82 SSE 7 11 30.08 1019 10 16 0.03 0.76
7:55 am 07:55 Cloudy with Light Rain 55 12.7 48 9.1 79 79 SSE 8 13 30.08 1019 10 16 0.04 1.02
8:15 am 08:15 Cloudy with Rain 55 12.5 50 9.8 84 84 SSW 3 6 30.08 1019 10 16 0.02 0.51
8:35 am 08:35 Cloudy with Light Rain 55 12.5 51 10.3 86 86 Calm 30.07 1018 5 8 0.04 1.02
8:55 am 08:55 Cloudy with Light Rain 54 12.3 51 10.3 88 88 Calm 30.09 1019 10 16 0.06 1.52
9:15 am 09:15 Cloudy with Light Rain 54 12.1 51 10.6 91 91 Calm 30.08 1019 5 8 0.02 0.51
9:35 am 09:35 Cloudy with Rain 54 12.2 51 10.7 91 91 Calm 30.08 1019 7 11 0.05 1.27
9:55 am 09:55 Cloudy with Rain 54 12.2 51 10.6 90 90 Calm 30.10 1019 4 6 0.11 2.79
10:15 am 10:15 Cloudy with Rain 54 12.1 52 11 93 93 Calm 30.11 1019 7 11 0.03 0.76
10:35 am 10:35 Cloudy with Light Rain 54 12.1 52 10.9 92 92 ESE 6 9 30.09 1019 10 16 0.06 1.52
10:55 am 10:55 Cloudy with Light Rain 54 12.3 52 11.2 93 93 Calm 30.11 1020 10 16 0.06 1.52
11:15 am 11:15 Cloudy with Light Rain 54 12.2 51 10.8 91 91 SE 5 7 30.10 1019 10 16 0.02 0.51
11:35 am 11:35 Cloudy with Light Rain 54 12.2 51 10.8 91 91 ESE 5 7 30.10 1019 10 16 0.02 0.51
11:55 am 11:55 Cloudy with Light Rain 54 12.2 51 10.6 90 90 SE 3 6 30.10 1019 7 11 0.04 1.02
12:15 pm 12:15 Cloudy with Light Rain 54 12.3 52 11 92 92 Calm 30.10 1019 10 16 0.00 0.00
12:35 pm 12:35 Cloudy with Drizzle 55 12.6 52 11.1 91 91 Calm 30.09 1019 10 16 0.00 0.00
12:55 pm 12:55 Mostly Cloudy 56 13.1 53 11.8 92 92 Calm 30.08 1019 10 16 0.00 0.00
1:15 pm 13:15 Mostly Cloudy 59 14.9 56 13.2 90 90 Calm 30.07 1018 10 16 0.00 0.00
1:35 pm 13:35 Cloudy 60 15.5 56 13.5 88 88 Calm 30.06 1018 10 16 0.00 0.00
1:55 pm 13:55 Cloudy 62 16.4 57 13.8 85 85 Calm 30.06 1018 10 16 0.00 0.00
2:15 pm 14:15 Cloudy 62 16.5 56 13.6 83 83 Calm 30.05 1017 10 16 0.00 0.00
2:35 pm 14:35 Cloudy 62 16.9 57 13.8 82 82 SSW 5 7 30.03 1017 10 16 0.00 0.00
2:55 pm 14:55 Cloudy 64 17.8 57 13.9 78 78 SSW 3 6 30.02 1017 10 16 0.00 0.00
3:15 pm 15:15 Partly Cloudy 65 18.5 57 13.9 75 75 SSW 3 6 30.01 1016 10 16 0.00 0.00
3:35 pm 15:35 Partly Cloudy 67 19.3 58 14.5 74 74 SW 7 11 30.00 1016 10 16 0.00 0.00
3:55 pm 15:55 Partly Cloudy 67 19.6 58 14.2 71 71 S 7 11 30.00 1016 10 16 0.00 0.00
4:15 pm 16:15 Sunny 68 20.1 57 13.9 68 68 S 5 7 29.99 1015 10 16 0.00 0.00
4:35 pm 16:35 Sunny 69 20.4 57 13.7 65 65 SW 8 13 29.98 1015 10 16 0.00 0.00
4:55 pm 16:55 Sunny 70 20.9 56 13.4 62 62 SW 7 11 29.98 1015 10 16 0.00 0.00
5:15 pm 17:15 Partly Cloudy 69 20.8 56 13.1 61 61 SSW 8 13 29.98 1015 10 16 0.00 0.00
5:35 pm 17:35 Partly Cloudy 69 20.7 55 13 61 61 S 7 11 29.98 1015 10 16 0.00 0.00
5:55 pm 17:55 Sunny 69 20.5 55 13 62 62 S 7 11 29.98 1015 10 16 0.00 0.00
6:15 pm 18:15 Sunny 68 20 55 13 64 64 S 7 11 29.99 1016 10 16 0.00 0.00
6:35 pm 18:35 Sunny 66 18.7 56 13.1 70 70 SSE 6 9 30.00 1016 10 16 0.00 0.00
6:55 pm 18:55 Sunny 65 18.6 56 13.4 72 72 SSE 6 9 30.00 1016 10 16 0.00 0.00
7:15 pm 19:15 Clear 64 17.6 56 13.4 76 76 S 3 6 30.02 1016 10 16 0.00 0.00
7:35 pm 19:35 Partly Cloudy 62 16.4 56 13.1 81 81 S 6 9 30.03 1017 10 16 0.00 0.00
7:55 pm 19:55 Clear 60 15.6 55 12.6 82 82 S 5 7 30.03 1017 10 16 0.00 0.00
8:15 pm 20:15 Clear 59 15.2 55 12.5 84 84 S 3 6 30.04 1017 10 16 0.00 0.00
8:35 pm 20:35 Clear 59 15 55 12.5 85 85 S 6 9 30.04 1017 10 16 0.00 0.00
8:55 pm 20:55 Clear 58 14.2 54 12.4 89 89 S 6 9 30.05 1018 10 16 0.00 0.00
9:15 pm 21:15 Clear 58 14.3 54 12.2 87 87 Calm 30.07 1018 10 16 0.00 0.00
9:35 pm 21:35 Clear 58 14.4 54 12 85 85 SW 3 6 30.06 1018 10 16 0.00 0.00
9:55 pm 21:55 Clear 57 13.9 54 12 88 88 WNW 5 7 30.08 1019 10 16 0.00 0.00
10:15 pm 22:15 Clear 57 14 54 12 88 88 Calm 30.09 1019 10 16 0.00 0.00
10:35 pm 22:35 Clear 57 13.9 53 11.9 88 88 Calm 30.09 1019 10 16 0.00 0.00
10:55 pm 22:55 Clear 57 13.8 53 11.9 88 88 Calm 30.09 1019 10 16 0.00 0.00
11:15 pm 23:15 Clear 55 13 53 11.5 91 91 SW 3 6 30.10 1019 10 16 0.00 0.00
11:35 pm 23:35 Clear 56 13.5 53 11.8 89 89 WSW 3 6 30.09 1019 10 16 0.00 0.00
11:55 pm 23:55 Clear 56 13.3 53 11.8 91 91 Calm 30.10 1019 10 16 0.00 0.00

Powered by AerisWeather